Terminal Aerodrome Forecast
Issued by NWS Cleveland, OH

Home | Current Version | Previous Version | Graphics & Text | Print | Product List | Glossary On
Versions: 1 2 3 4 5 6 7 8 9 10 11 12 13 14 15 16 17 18 19 20
000
FTUS41 KCLE 010927 AAA
TAFCAK
TAF AMD
KCAK 010927Z 0109/0206 VRB03KT 3SM -DZ BR OVC015
     FM011200 VRB03KT 3SM BR OVC015
     FM011400 24007KT 4SM BR OVC007
     FM011800 28007KT 4SM SHRA BR OVC007
     FM011900 30005KT P6SM OVC035
     FM020200 02005KT 4SM BR OVC015
     FM020400 05004KT 4SM -RA BR OVC004=

USA.gov is the U.S. government's official web portal to all federal, state and local government web resources and services.